Tracking 31013 objects as of 11-Jul-2025
HD Live streaming from Space Station
objects crossing your sky now

ARIANE 5 R/B

Track ARIANE 5 R/B now!


NORAD ID: 41795
Int'l Code: 2016-060C
Perigee: 212.8 km
Apogee: 30,503.8 km
Inclination: 5.7 °
Period: 531.3 minutes
Semi major axis: 21729 km
RCS: Unknown
Launch date: October 5, 2016
Source: France (FR)
Launch site: FRENCH GUIANA (FRGUI)

Note: This is a ROCKET BODY
Your satellite tracking list
Your tracking list is empty




NASA's NSSDC Master Catalog

Two Line Element Set (TLE):
1 41795U 16060C   25191.70015482  .00015041  00000-0  11620-2 0  9997
2 41795   5.7286 131.0179 6970063 178.7656 184.7783  2.71040404 78273
Source of the keplerian elements: AFSPC